Weather History for Saranac Lake, NY

Change the Weather History Date:

Sunday, June 24, 2012

  Actual Average Record
Temperature  
Mean Temperature 59 °F 62 °F  
Max Temperature 78 °F 74 °F 90 °F (2003)
Min Temperature 39 °F 50 °F -47 °F (1999)
Degree Days  
Heating Degree Days 8    
Cooling Degree Days 0 1  
Month to date cooling degree days 34 23  
Year to date cooling degree days 50 26  
Since 1 June cooling degree days 34 23  
Growing Degree Days 7 (Base 50)    
Moisture  
Dew Point 48 °F    
Average Humidity 66    
Maximum Humidity 100    
Minimum Humidity 31    
Precipitation  
Precipitation 0.29 in 0.12 in 1.15 in (1948)
Month to date precipitation 2.24 3.11  
Year to date precipitation 14.23 15.46  
Sea Level Pressure  
Sea Level Pressure 29.97 in    
Wind  
Wind Speed 3 mph (SW)    
Max Wind Speed 14 mph    
Max Gust Speed 20 mph    
Visibility 9 miles    
Events Rain    
T = Trace of Precipitation, MM = Missing Value Source: NWS Daily Summary

Daily Weather History Graph

Daily Weather History Graph

Search for Another Location

Airport:

Trip Planner

Search our weather history database for the weather conditions in past years. The results will help you decide how hot, cold, wet, or windy it might be!

Date:

Astronomy

Jun. 24, 2012 Rise Set
Actual Time 5:13 AM EDT 8:45 PM EDT
Civil Twilight 4:36 AM EDT 9:21 PM EDT
Nautical Twilight 3:48 AM EDT 10:10 PM EDT
Astronomical Twilight 2:45 AM EDT 11:13 PM EDT
Moon 10:28 AM EDT (6/24) 11:28 PM EDT (6/24)
Length of Visible Light 16h 45m
Length of Day
15h 31m
Waxing Crescent, 24% of the Moon is Illuminated
Jun 24
Waxing Crescent
Jun 26
First Quarter
Jul 3
Full
Jul 10
Last Quarter
Jul 19
New

Hourly Weather History & Observations

Time (EDT) Temp. Dew Point Humidity Pressure Visibility Wind Dir Wind Speed Gust Speed Precip Events Conditions
12:51 AM 43.0 °F 41.0 °F 93% 30.02 in 10.0 mi Calm Calm - N/A   Clear
1:51 AM 42.1 °F 39.9 °F 92% 30.02 in 10.0 mi Calm Calm - N/A   Clear
2:51 AM 41.0 °F 39.2 °F 93% 30.02 in 10.0 mi Calm Calm - N/A   Clear
3:51 AM 39.9 °F 37.9 °F 93% 30.02 in 10.0 mi Calm Calm - N/A   Clear
4:51 AM 39.0 °F 37.9 °F 96% 30.03 in 10.0 mi Calm Calm - N/A   Clear
5:51 AM 39.9 °F 37.0 °F 89% 30.02 in 10.0 mi Calm Calm - N/A   Partly Cloudy
6:05 AM 41.0 °F 39.2 °F 93% 30.02 in 10.0 mi Calm Calm - N/A   Mostly Cloudy
6:12 AM 41.0 °F 39.2 °F 93% 30.02 in 1.8 mi Calm Calm - N/A   Mostly Cloudy
6:26 AM 44.6 °F 42.8 °F 93% 30.02 in 4.0 mi Calm Calm - N/A   Overcast
6:46 AM 48.2 °F 46.4 °F 93% 30.02 in 10.0 mi Calm Calm - N/A   Scattered Clouds
6:51 AM 48.0 °F 46.9 °F 96% 30.02 in 10.0 mi Calm Calm - N/A   Partly Cloudy
7:51 AM 59.0 °F 53.1 °F 81% 30.01 in 10.0 mi SW 4.6 mph - N/A   Clear
8:51 AM 64.9 °F 55.0 °F 70% 30.01 in 10.0 mi South 4.6 mph - N/A   Clear
9:51 AM 69.8 °F 48.2 °F 46% 30.01 in 10.0 mi Variable 4.6 mph - N/A   Clear
10:51 AM 73.0 °F 41.0 °F 31% 29.99 in 10.0 mi Variable 3.5 mph - N/A   Partly Cloudy
11:51 AM 73.9 °F 43.0 °F 33% 29.98 in 10.0 mi West 8.1 mph - N/A   Partly Cloudy
12:51 PM 73.9 °F 43.0 °F 33% 29.97 in 10.0 mi WSW 5.8 mph - N/A   Scattered Clouds
1:51 PM 75.9 °F 44.1 °F 32% 29.94 in 10.0 mi Variable 6.9 mph - N/A   Partly Cloudy
2:51 PM 75.9 °F 43.0 °F 31% 29.92 in 10.0 mi SW 5.8 mph - N/A   Partly Cloudy
3:51 PM 73.9 °F 44.1 °F 34% 29.91 in 10.0 mi WSW 6.9 mph - N/A   Mostly Cloudy
4:51 PM 62.1 °F 55.9 °F 80% 29.95 in 10.0 mi WNW 4.6 mph - 0.01 in Rain Light Rain
5:51 PM 62.1 °F 57.0 °F 84% 29.94 in 10.0 mi South 5.8 mph - 0.01 in   Overcast
6:51 PM 62.1 °F 55.9 °F 80% 29.94 in 10.0 mi Calm Calm - N/A   Overcast
7:51 PM 60.1 °F 57.0 °F 90% 29.94 in 3.0 mi Calm Calm - 0.03 in Rain Light Rain
8:01 PM 59.0 °F 57.2 °F 94% 29.94 in 3.0 mi Calm Calm - 0.01 in Rain Light Rain
8:51 PM 59.0 °F 57.0 °F 93% 29.91 in 10.0 mi Calm Calm - 0.02 in   Overcast
9:09 PM 57.2 °F 57.2 °F 100% 29.91 in 7.0 mi Calm Calm - 0.00 in   Overcast
9:51 PM 57.9 °F 57.0 °F 97% 29.88 in 9.0 mi SSW 3.5 mph - 0.00 in   Overcast
10:51 PM 57.0 °F 55.9 °F 96% 29.87 in 5.0 mi WSW 3.5 mph - 0.01 in Rain Light Rain
11:51 PM 57.0 °F 55.9 °F 96% 29.86 in 4.0 mi SSW 5.8 mph - 0.07 in Rain Rain